Temp
71 71 71 71 71 72 73 74 73 73 74 74 74 74 74 74 75 75 74 73 72 70 69 70 71 71 74 72 73 74 74 74 74 74 74 73 73 73 73 73 73 72 73 73 72 73 72 72 73 73 73 73 72 69 69 69 69 68 68 69 69 69
70 71 71 71 71 72 72 72 70 70 71 72 74 74 73 72 74 71 72 69 67 69 66 66 69 73 71 72 73 74 74 74 74 74 73 73 73 73 73 73 73 72 72 72 73 65 66 70 72 73 73 72 67 68 68 68 68 68 68 67 68 72
70 70 70 70 71 71 69 68 68 69 71 72 73 72 71 71 68 67 67 67 67 66 66 67 68 71 71 73 73 74 74 74 74 74 73 73 73 73 72 72 72 72 72 72 67 64 63 63 63 72 71 67 66 68 68 67 67 68 67 68 68 74
69 69 69 69 69 68 67 67 67 68 69 69 69 69 69 68 67 66 66 66 66 67 66 67 75 75 74 71 71 74 74 74 74 74 74 71 73 73 73 72 72 71 67 66 62 63 65 64 64 63 64 65 66 68 68 67 67 67 68 71 70 74
69 69 69 69 68 67 67 67 67 67 68 68 68 67 67 67 66 66 66 66 67 67 66 66 67 68 68 69 68 69 69 69 68 68 70 66 66 67 66 65 65 66 65 65 66 64 65 66 66 66 65 65 67 68 68 68 68 67 68 69 70 74
68 67 68 68 67 68 68 67 67 67 67 67 67 67 67 66 66 66 66 67 67 66 66 66 67 67 68 67 67 67 67 66 66 66 68 66 65 65 65 64 65 65 65 65 66 66 66 67 67 65 66 66 67 67 67 67 66 67 67 67 71 74
67 67 67 67 67 67 67 67 67 67 67 67 67 67 66 66 66 66 66 67 66 66 65 65 66 66 66 66 66 65 65 65 65 65 66 65 65 64 64 65 64 64 63 65 66 67 66 67 66 67 66 67 66 67 65 66 66 66 66 67 71 74
67 67 66 67 67 67 66 67 68 69 68 69 68 67 67 66 66 66 67 67 67 65 65 65 65 65 65 65 65 64 64 64 64 64 65 66 65 64 64 64 64 64 65 65 65 66 65 67 66 67 66 65 64 64 65 65 67 66 66 67 69 73
67 67 67 68 67 67 67 67 68 67 68 71 67 67 67 67 66 66 66 67 67 65 64 65 65 65 65 65 65 64 64 64 64 64 64 64 64 64 63 64 64 65 64 64 64 65 67 68 66 66 66 66 65 63 65 65 66 66 66 66 68 71
68 68 68 68 67 67 67 67 67 67 68 69 67 67 67 66 66 66 66 66 66 65 65 65 65 65 64 64 64 64 64 63 63 64 64 63 64 64 64 63 63 64 64 64 64 66 67 67 67 66 65 65 64 64 64 65 65 66 66 66 67 70
69 69 69 68 67 67 67 67 67 67 68 67 67 67 67 67 66 66 66 66 66 66 65 64 65 65 64 64 64 64 64 64 65 64 65 64 64 64 64 64 63 63 64 63 64 66 66 67 67 66 64 65 64 64 65 65 66 66 66 66 66 68
69 69 69 69 68 67 67 67 67 67 67 67 68 67 66 66 67 66 66 65 65 65 65 64 64 65 65 64 64 63 63 64 64 64 65 65 65 65 64 64 65 64 64 64 64 64 65 65 64 65 65 65 65 65 65 65 66 66 66 66 66 66
70 69 69 69 68 68 68 68 67 67 67 68 67 67 66 66 66 66 65 65 65 65 65 65 64 65 66 64 64 63 63 63 64 64 65 66 66 65 65 64 63 65 64 63 64 63 67 65 64 64 65 65 65 65 65 65 65 66 66 66 66 66
70 69 69 69 68 68 68 68 68 67 68 67 66 66 66 66 66 66 65 65 64 65 65 64 65 65 65 64 64 64 63 63 64 64 64 65 65 65 65 64 63 64 65 63 63 62 63 64 63 63 64 64 64 64 65 65 65 65 65 65 65 65
70 69 70 69 69 68 68 68 68 67 67 67 67 66 66 66 66 66 65 64 65 65 65 65 65 65 65 65 64 63 63 64 65 65 65 65 65 65 65 64 63 63 62 62 62 62 63 63 63 63 63 64 64 65 65 65 65 65 65 65 65 65
68 68 68 69 68 68 68 68 68 69 67 67 66 66 65 66 66 66 65 64 65 65 66 66 65 65 65 64 64 63 63 64 65 65 65 64 65 64 63 63 63 63 62 62 62 62 62 62 62 62 63 63 63 64 64 64 64 65 65 66 66 65
67 68 68 68 68 68 68 68 68 68 67 67 66 66 66 66 66 66 65 64 64 66 65 65 65 65 65 64 63 64 63 64 64 64 63 63 63 63 63 63 63 62 63 61 62 61 61 62 62 63 63 63 63 63 63 63 63 64 65 65 65 65
66 65 64 64 66 68 68 69 68 68 68 67 67 66 66 66 65 65 65 65 65 66 65 65 65 64 63 64 64 64 63 64 64 64 63 62 63 63 63 63 62 63 63 63 61 61 61 62 63 63 63 63 63 63 63 63 63 65 64 64 65 65
65 63 63 64 63 64 67 68 67 67 67 67 67 66 66 65 65 65 64 65 65 65 66 64 64 64 64 64 63 63 63 63 64 63 63 62 62 63 63 62 62 63 63 63 62 62 62 62 63 63 63 62 63 62 63 63 63 63 63 64 66 66
63 64 63 63 63 62 65 67 65 65 66 66 67 66 66 66 66 65 65 65 65 65 65 65 64 63 64 63 62 62 63 63 63 63 62 62 61 62 62 63 62 63 62 63 63 62 62 62 61 61 61 62 62 62 63 62 63 63 63 63 63 63
63 64 63 62 62 62 63 65 64 65 65 65 66 65 66 65 65 65 66 66 66 65 65 64 64 63 63 65 62 62 62 61 63 63 62 61 62 62 62 63 63 62 62 61 61 61 62 62 61 60 61 61 60 62 63 63 62 62 62 62 63 63
63 63 63 63 63 63 65 67 66 65 64 64 65 64 63 63 65 66 65 65 65 65 65 64 64 63 63 63 62 62 62 62 62 62 62 62 62 63 63 63 63 61 61 60 60 61 61 61 58 59 58 58 59 60 62 62 62 62 62 63 62 62
63 63 63 63 62 63 65 68 67 65 66 63 66 66 66 65 66 66 64 65 65 65 65 64 64 64 63 62 62 62 62 62 62 63 62 61 61 61 62 62 62 61 60 60 60 61 60 59 58 59 59 57 55 55 57 58 60 62 62 62 62 62
63 63 63 63 64 64 66 67 67 67 65 65 64 65 65 65 65 65 64 65 64 65 64 64 64 64 64 63 62 62 62 62 63 63 62 61 61 61 61 61 61 61 61 58 57 60 60 60 60 60 55 53 54 53 52 55 56 59 61 62 62 62
63 63 63 63 64 65 65 65 65 65 65 64 64 64 64 62 64 65 65 63 64 63 64 64 64 63 64 63 62 62 62 63 62 62 63 62 61 62 62 62 62 61 60 59 58 58 60 61 61 60 59 56 53 52 52 53 56 57 59 60 61 61
63 63 63 64 64 65 66 65 64 63 62 61 61 61 61 61 61 62 63 63 63 63 63 62 63 63 64 63 62 62 62 63 62 63 63 62 63 62 61 61 62 62 59 58 60 58 58 59 59 60 59 58 57 56 54 55 55 53 59 60 61 60
63 64 64 64 65 66 65 66 66 65 64 63 61 60 61 62 62 62 62 63 63 62 63 63 62 62 62 62 62 61 62 63 63 63 64 62 62 63 63 63 62 61 60 60 60 57 58 58 58 58 59 59 60 59 61 57 52 54 54 56 57 58
64 64 64 64 65 67 66 66 65 65 64 63 63 61 62 62 61 61 61 62 63 62 63 63 62 61 62 62 61 61 61 61 62 62 63 63 62 62 63 63 63 62 61 61 60 60 58 58 58 57 59 57 58 60 60 58 59 57 54 53 54 59
63 63 63 64 65 66 67 66 66 64 63 63 63 62 61 62 61 61 61 60 62 61 62 63 62 62 61 62 62 62 61 61 61 61 63 62 61 63 63 62 62 61 61 60 60 60 59 58 58 58 57 56 59 58 58 59 59 58 54 53 52 54
63 62 63 64 65 64 65 66 65 64 63 61 62 61 62 61 60 60 60 60 60 60 61 60 61 62 61 62 62 61 60 61 61 62 62 61 61 62 62 62 62 62 61 60 59 60 60 59 59 59 59 59 57 56 57 57 56 56 58 56 55 55
63 62 63 63 64 64 64 64 65 64 63 62 61 61 61 60 59 59 61 59 60 60 60 60 61 60 61 61 61 62 62 61 62 63 62 62 61 62 62 62 61 61 61 61 59 59 58 58 59 59 58 59 59 60 58 56 56 57 56 55 55 55
62 62 61 62 63 63 63 63 64 64 64 63 63 63 62 60 60 60 60 59 59 59 60 60 60 59 59 60 61 60 61 61 61 61 62 62 61 62 62 61 61 61 60 59 60 60 59 58 58 58 57 58 59 58 59 59 59 58 58 58 59 56
62 61 61 61 62 62 62 63 64 64 64 64 64 64 62 60 59 60 59 59 59 60 59 61 59 60 59 59 61 61 61 60 60 60 61 62 61 61 61 61 60 60 60 60 60 60 59 58 59 58 58 58 59 59 60 59 60 58 59 59 58 56
62 61 59 60 61 61 61 63 63 64 63 63 63 63 62 61 60 61 60 60 60 60 59 59 58 59 59 59 59 60 61 60 58 59 60 60 60 60 60 61 60 59 59 58 58 59 58 58 57 57 58 58 59 58 59 60 59 59 59 58 56 57
60 60 59 60 60 60 60 61 61 62 62 62 62 62 61 61 61 60 60 61 60 59 60 59 60 59 59 59 58 58 59 60 59 59 60 60 61 60 60 61 60 59 58 58 58 58 57 58 59 57 56 58 58 58 59 61 58 60 61 60 59 57
60 59 59 59 59 59 60 60 61 61 62 63 63 63 61 61 61 61 61 61 60 60 60 59 59 59 59 59 58 58 59 58 58 58 58 59 60 59 59 59 58 59 59 60 58 57 56 57 57 56 56 56 59 58 59 60 61 61 61 60 59 57
60 59 59 58 59 60 61 61 62 62 62 63 63 62 62 61 60 60 61 60 60 59 59 59 60 59 58 58 58 58 58 57 58 57 58 58 59 58 58 59 59 57 56 56 58 57 56 57 55 56 56 57 57 58 58 58 60 61 60 58 58 56
MSLP
1013.83 1013.87 1013.99 1014.19 1014.39 1014.47 1014.47 1014.55 1014.75 1014.91 1015.03 1015.15 1015.31 1015.47 1015.63 1015.75 1015.91 1016.07 1016.27 1016.51 1016.71 1016.87 1016.91 1016.87 1016.91 1016.95 1016.99 1017.15 1017.27 1017.35 1017.39 1017.55 1017.51 1017.31 1017.39 1017.51 1017.79 1018.07 1018.31 1018.43 1018.59 1018.63 1018.63 1018.63 1018.63 1018.55 1018.51 1018.47 1018.43 1018.43 1018.59 1018.75 1018.63 1018.71 1018.87 1019.03 1019.23 1019.43 1019.51 1019.55 1019.59 1019.63
1014.03 1014.11 1014.19 1014.35 1014.51 1014.63 1014.71 1014.87 1015.03 1015.15 1015.27 1015.39 1015.47 1015.63 1015.83 1015.95 1016.07 1016.27 1016.51 1016.83 1016.99 1017.07 1017.15 1017.15 1017.11 1017.11 1017.23 1017.27 1017.39 1017.43 1017.47 1017.75 1017.71 1017.47 1017.51 1017.67 1017.91 1018.15 1018.35 1018.47 1018.55 1018.59 1018.63 1018.63 1018.63 1018.59 1018.59 1018.55 1018.47 1018.43 1018.63 1018.83 1018.79 1018.83 1019.03 1019.27 1019.43 1019.55 1019.63 1019.67 1019.63 1019.63
1014.23 1014.27 1014.35 1014.55 1014.67 1014.79 1014.99 1015.15 1015.31 1015.39 1015.55 1015.63 1015.71 1015.83 1015.95 1016.11 1016.35 1016.59 1016.75 1017.03 1017.23 1017.31 1017.31 1017.31 1017.27 1017.31 1017.35 1017.43 1017.51 1017.51 1017.67 1017.87 1017.83 1017.67 1017.71 1017.79 1017.99 1018.19 1018.35 1018.47 1018.51 1018.55 1018.63 1018.63 1018.63 1018.63 1018.63 1018.63 1018.59 1018.51 1018.83 1018.91 1018.87 1018.95 1019.11 1019.35 1019.55 1019.63 1019.71 1019.67 1019.63 1019.59
1014.27 1014.35 1014.47 1014.67 1014.83 1014.99 1015.19 1015.39 1015.51 1015.63 1015.79 1015.95 1016.03 1016.11 1016.19 1016.39 1016.63 1016.83 1016.95 1017.23 1017.39 1017.39 1017.43 1017.39 1017.27 1017.31 1017.43 1017.59 1017.67 1017.75 1017.87 1017.95 1017.91 1017.91 1017.87 1017.95 1018.07 1018.23 1018.35 1018.43 1018.51 1018.55 1018.67 1018.71 1018.75 1018.71 1018.63 1018.59 1018.59 1018.59 1019.07 1018.99 1018.91 1019.03 1019.15 1019.35 1019.51 1019.63 1019.63 1019.63 1019.63 1019.59
1014.35 1014.43 1014.59 1014.75 1014.99 1015.23 1015.35 1015.51 1015.67 1015.87 1015.99 1016.11 1016.23 1016.35 1016.47 1016.67 1016.83 1016.99 1017.11 1017.35 1017.43 1017.47 1017.55 1017.55 1017.55 1017.59 1017.67 1017.79 1017.95 1018.03 1018.03 1018.11 1018.11 1018.15 1018.03 1018.15 1018.31 1018.43 1018.51 1018.63 1018.67 1018.71 1018.79 1018.83 1018.83 1018.79 1018.71 1018.55 1018.47 1018.75 1019.15 1018.95 1018.95 1019.03 1019.15 1019.23 1019.39 1019.55 1019.63 1019.59 1019.63 1019.71
1014.47 1014.67 1014.75 1014.91 1015.11 1015.31 1015.43 1015.67 1015.91 1016.07 1016.19 1016.31 1016.39 1016.55 1016.71 1016.91 1017.07 1017.15 1017.23 1017.35 1017.43 1017.55 1017.63 1017.71 1017.71 1017.79 1017.87 1017.95 1018.15 1018.23 1018.23 1018.27 1018.31 1018.27 1018.11 1018.27 1018.35 1018.47 1018.59 1018.67 1018.79 1018.87 1018.87 1018.83 1018.83 1018.79 1018.67 1018.59 1018.59 1018.91 1018.91 1018.99 1018.99 1019.03 1019.19 1019.35 1019.55 1019.79 1019.79 1019.71 1019.75 1019.83
1014.67 1014.87 1015.03 1015.11 1015.23 1015.35 1015.63 1015.75 1015.95 1016.11 1016.23 1016.47 1016.47 1016.67 1016.91 1017.07 1017.19 1017.23 1017.27 1017.35 1017.51 1017.63 1017.71 1017.79 1017.87 1017.91 1018.03 1018.11 1018.35 1018.35 1018.43 1018.43 1018.39 1018.27 1018.19 1018.27 1018.43 1018.47 1018.59 1018.75 1018.87 1018.99 1019.03 1019.03 1018.99 1018.87 1018.63 1018.43 1018.47 1018.63 1018.91 1018.99 1019.11 1019.19 1019.31 1019.43 1019.55 1019.75 1019.99 1019.91 1019.91 1019.95
1014.83 1015.03 1015.19 1015.19 1015.27 1015.51 1015.71 1015.83 1015.95 1016.07 1016.23 1016.31 1016.47 1016.79 1016.99 1017.07 1017.15 1017.23 1017.27 1017.35 1017.39 1017.55 1017.67 1017.79 1017.83 1017.91 1018.11 1018.19 1018.35 1018.43 1018.55 1018.59 1018.47 1018.39 1018.27 1018.31 1018.47 1018.55 1018.55 1018.71 1018.95 1019.11 1019.19 1019.19 1019.11 1018.91 1018.55 1018.43 1018.39 1018.59 1018.91 1019.03 1019.35 1019.43 1019.31 1019.43 1019.55 1019.79 1019.99 1020.07 1020.03 1020.07
1014.99 1015.19 1015.27 1015.23 1015.47 1015.59 1015.75 1015.87 1015.99 1016.15 1016.27 1016.31 1016.55 1016.75 1016.91 1017.03 1017.19 1017.19 1017.23 1017.27 1017.35 1017.55 1017.63 1017.67 1017.83 1017.91 1018.03 1018.19 1018.31 1018.51 1018.63 1018.63 1018.59 1018.51 1018.43 1018.51 1018.51 1018.59 1018.63 1018.79 1018.99 1019.19 1019.23 1019.23 1019.11 1018.87 1018.55 1018.51 1018.59 1018.63 1018.87 1019.11 1019.43 1019.47 1019.51 1019.59 1019.75 1019.95 1020.07 1020.15 1020.11 1020.11
1014.99 1015.11 1015.23 1015.39 1015.59 1015.79 1015.91 1016.07 1016.15 1016.23 1016.27 1016.35 1016.59 1016.71 1016.83 1017.03 1017.07 1017.15 1017.23 1017.23 1017.27 1017.35 1017.43 1017.59 1017.83 1017.95 1018.07 1018.23 1018.39 1018.55 1018.63 1018.63 1018.63 1018.59 1018.63 1018.71 1018.63 1018.67 1018.79 1018.91 1019.07 1019.19 1019.23 1019.19 1019.11 1018.91 1018.71 1018.75 1018.79 1018.79 1018.91 1019.15 1019.47 1019.59 1019.71 1019.75 1019.95 1020.03 1020.07 1020.19 1020.15 1020.15
1014.87 1014.95 1015.07 1015.35 1015.59 1015.83 1015.95 1016.15 1016.23 1016.23 1016.31 1016.47 1016.55 1016.71 1016.87 1016.95 1017.07 1017.11 1017.15 1017.15 1017.19 1017.23 1017.35 1017.55 1017.75 1017.91 1018.07 1018.23 1018.43 1018.55 1018.59 1018.55 1018.59 1018.59 1018.67 1018.71 1018.71 1018.79 1018.91 1019.03 1019.11 1019.19 1019.23 1019.23 1019.11 1018.91 1018.83 1018.87 1018.99 1019.11 1019.19 1019.35 1019.63 1019.83 1019.91 1019.95 1019.99 1020.03 1020.15 1020.27 1020.27 1020.23
1014.79 1014.83 1014.95 1015.19 1015.43 1015.75 1015.95 1016.11 1016.19 1016.27 1016.39 1016.43 1016.51 1016.71 1016.87 1016.95 1017.03 1017.07 1017.03 1017.07 1017.11 1017.15 1017.27 1017.51 1017.67 1017.79 1017.95 1018.19 1018.39 1018.47 1018.51 1018.55 1018.59 1018.67 1018.71 1018.71 1018.83 1018.91 1019.03 1019.07 1019.15 1019.23 1019.27 1019.19 1019.11 1019.03 1019.07 1019.27 1019.39 1019.35 1019.35 1019.63 1019.79 1019.95 1020.07 1020.03 1020.07 1020.07 1020.15 1020.27 1020.31 1020.31
1014.71 1014.79 1014.87 1015.07 1015.31 1015.55 1015.79 1016.03 1016.19 1016.27 1016.31 1016.39 1016.51 1016.63 1016.83 1016.91 1016.95 1016.95 1016.95 1016.95 1016.99 1017.07 1017.23 1017.43 1017.59 1017.67 1017.83 1018.07 1018.27 1018.39 1018.51 1018.51 1018.55 1018.67 1018.71 1018.75 1018.87 1018.99 1019.07 1019.19 1019.31 1019.31 1019.31 1019.23 1019.19 1019.19 1019.27 1019.47 1019.51 1019.47 1019.55 1019.79 1019.87 1020.03 1020.11 1020.15 1020.15 1020.11 1020.19 1020.23 1020.31 1020.39
1014.63 1014.75 1014.87 1014.99 1015.23 1015.51 1015.75 1015.99 1016.11 1016.19 1016.23 1016.31 1016.47 1016.63 1016.75 1016.83 1016.91 1016.95 1016.95 1016.95 1017.03 1017.11 1017.23 1017.35 1017.47 1017.59 1017.75 1017.95 1018.11 1018.23 1018.35 1018.43 1018.47 1018.55 1018.67 1018.79 1018.99 1019.07 1019.23 1019.35 1019.43 1019.35 1019.47 1019.39 1019.39 1019.35 1019.39 1019.63 1019.67 1019.63 1019.79 1019.95 1019.99 1020.03 1019.99 1020.03 1020.03 1020.03 1020.07 1020.19 1020.31 1020.51
1014.63 1014.83 1014.91 1015.11 1015.27 1015.55 1015.75 1015.99 1016.15 1016.23 1016.23 1016.23 1016.39 1016.55 1016.67 1016.79 1016.87 1016.91 1016.91 1016.99 1017.07 1017.11 1017.23 1017.27 1017.35 1017.51 1017.71 1017.79 1017.99 1018.15 1018.19 1018.31 1018.43 1018.55 1018.71 1018.83 1018.95 1019.15 1019.23 1019.39 1019.39 1019.51 1019.63 1019.59 1019.51 1019.55 1019.63 1019.75 1019.87 1019.99 1020.11 1020.07 1020.11 1020.03 1019.91 1019.95 1019.99 1020.11 1020.27 1020.43 1020.55 1020.71
1014.91 1015.11 1015.19 1015.23 1015.35 1015.59 1015.87 1016.07 1016.15 1016.15 1016.11 1016.15 1016.31 1016.51 1016.63 1016.71 1016.79 1016.87 1016.95 1017.03 1017.11 1017.15 1017.19 1017.27 1017.35 1017.43 1017.63 1017.71 1017.87 1018.03 1018.15 1018.31 1018.47 1018.63 1018.71 1018.83 1018.91 1019.19 1019.27 1019.35 1019.35 1019.31 1019.67 1019.83 1019.71 1019.79 1019.83 1019.99 1020.15 1020.31 1020.27 1020.19 1020.23 1020.23 1020.23 1020.27 1020.35 1020.47 1020.43 1020.47 1020.59 1020.67
1015.15 1015.27 1015.39 1015.43 1015.55 1015.71 1015.95 1016.11 1016.11 1016.07 1016.07 1016.15 1016.35 1016.47 1016.59 1016.71 1016.79 1016.87 1016.91 1017.07 1017.11 1017.15 1017.23 1017.31 1017.39 1017.43 1017.55 1017.75 1017.87 1017.99 1018.19 1018.31 1018.43 1018.63 1018.79 1018.87 1019.03 1019.07 1019.23 1019.35 1019.39 1019.39 1019.35 1019.71 1019.87 1020.03 1020.15 1020.23 1020.39 1020.55 1020.51 1020.47 1020.47 1020.43 1020.51 1020.59 1020.71 1020.67 1020.47 1020.63 1020.75 1020.79
1015.15 1015.19 1015.51 1016.15 1016.27 1015.99 1015.99 1015.99 1016.07 1016.11 1016.15 1016.27 1016.35 1016.39 1016.51 1016.67 1016.83 1016.79 1016.87 1016.99 1017.03 1017.07 1017.19 1017.27 1017.35 1017.39 1017.55 1017.71 1017.87 1018.03 1018.19 1018.27 1018.39 1018.55 1018.71 1018.87 1019.03 1019.07 1019.15 1019.19 1019.39 1019.47 1019.51 1019.63 1019.99 1020.19 1020.39 1020.47 1020.51 1020.71 1020.79 1020.75 1020.71 1020.63 1020.71 1020.79 1020.91 1020.87 1020.91 1020.91 1020.91 1021.03
1015.23 1015.43 1015.47 1015.83 1016.83 1016.99 1016.27 1016.11 1016.07 1016.19 1016.31 1016.35 1016.35 1016.35 1016.43 1016.59 1016.71 1016.79 1016.87 1016.91 1016.99 1017.03 1017.11 1017.15 1017.19 1017.27 1017.51 1017.71 1017.87 1017.99 1018.11 1018.19 1018.23 1018.47 1018.71 1018.91 1019.03 1019.11 1019.19 1019.23 1019.35 1019.55 1019.63 1019.79 1019.99 1020.23 1020.47 1020.55 1020.71 1020.79 1020.87 1020.95 1020.99 1021.03 1020.99 1021.03 1021.11 1021.11 1021.11 1021.07 1021.07 1021.15
1015.55 1015.59 1015.83 1016.11 1016.27 1017.07 1017.07 1016.39 1016.51 1016.43 1016.51 1016.47 1016.35 1016.39 1016.43 1016.47 1016.63 1016.75 1016.79 1016.91 1017.03 1017.07 1017.11 1017.15 1017.23 1017.31 1017.47 1017.71 1017.91 1018.03 1018.11 1018.15 1018.27 1018.47 1018.75 1018.99 1019.11 1019.19 1019.27 1019.39 1019.47 1019.51 1019.83 1020.11 1020.23 1020.39 1020.55 1020.59 1020.87 1021.03 1021.15 1021.11 1021.23 1021.35 1021.43 1021.43 1021.35 1021.35 1021.31 1021.31 1021.35 1021.39
1015.59 1015.51 1015.79 1016.15 1016.19 1016.27 1016.99 1016.63 1016.55 1016.55 1016.55 1016.43 1016.43 1016.43 1016.55 1016.63 1016.71 1016.75 1016.83 1016.95 1017.07 1017.11 1017.19 1017.27 1017.35 1017.39 1017.55 1017.67 1017.87 1017.99 1018.11 1018.27 1018.39 1018.55 1018.75 1018.87 1018.91 1019.07 1019.19 1019.31 1019.51 1019.59 1019.87 1020.35 1020.71 1020.63 1020.47 1020.43 1020.75 1021.43 1021.43 1021.51 1021.55 1021.47 1021.47 1021.55 1021.63 1021.63 1021.67 1021.63 1021.59 1021.67
1015.35 1015.47 1015.67 1015.71 1015.83 1015.79 1016.03 1016.03 1016.19 1016.39 1016.35 1016.39 1016.47 1016.59 1016.71 1016.71 1016.75 1016.79 1016.83 1016.95 1017.03 1017.11 1017.23 1017.35 1017.39 1017.43 1017.55 1017.71 1017.95 1018.03 1018.15 1018.31 1018.43 1018.59 1018.71 1018.79 1018.91 1019.03 1019.23 1019.39 1019.55 1019.91 1019.95 1020.31 1020.83 1020.63 1020.43 1020.47 1021.19 1021.43 1021.71 1021.99 1021.95 1021.75 1021.67 1021.67 1021.79 1021.91 1021.95 1021.87 1021.83 1021.87
1015.19 1015.39 1015.59 1015.59 1015.95 1015.83 1015.71 1015.67 1015.83 1016.07 1016.19 1016.39 1016.19 1016.15 1016.31 1016.47 1016.55 1016.75 1016.83 1016.87 1016.95 1017.03 1017.19 1017.31 1017.39 1017.47 1017.59 1017.79 1017.91 1017.99 1018.15 1018.23 1018.39 1018.51 1018.71 1018.91 1019.03 1019.19 1019.35 1019.55 1019.63 1019.87 1020.27 1020.47 1020.91 1020.99 1020.95 1020.83 1021.23 1021.31 1021.35 1021.71 1022.35 1022.35 1022.07 1022.03 1022.07 1022.15 1022.15 1022.11 1022.07 1022.15
1015.15 1015.31 1015.43 1015.55 1015.71 1015.55 1015.39 1015.43 1015.51 1015.75 1015.99 1016.07 1016.39 1016.39 1016.39 1016.51 1016.67 1016.79 1016.95 1016.83 1016.91 1017.03 1017.19 1017.35 1017.43 1017.55 1017.63 1017.75 1017.87 1017.95 1018.07 1018.23 1018.39 1018.39 1018.59 1018.87 1019.07 1019.27 1019.43 1019.83 1019.75 1019.87 1020.03 1020.67 1020.91 1021.19 1021.11 1020.87 1020.79 1020.87 1021.63 1021.83 1022.31 1022.27 1022.63 1022.63 1022.71 1022.63 1022.31 1022.27 1022.23 1022.19
1014.91 1015.11 1015.23 1015.31 1015.35 1015.23 1015.35 1015.55 1015.75 1015.99 1016.11 1016.43 1016.55 1016.67 1016.79 1016.99 1016.91 1016.95 1017.03 1017.07 1017.07 1017.19 1017.35 1017.47 1017.51 1017.63 1017.67 1017.75 1017.83 1017.91 1017.99 1018.15 1018.35 1018.47 1018.55 1018.75 1018.95 1019.11 1019.27 1019.43 1019.55 1019.83 1019.99 1020.23 1020.71 1020.83 1020.87 1020.75 1020.75 1020.59 1020.59 1021.59 1022.23 1022.55 1022.35 1022.27 1022.55 1022.87 1022.55 1022.63 1022.55 1022.39
1014.95 1014.99 1015.03 1015.03 1015.07 1015.11 1015.27 1015.67 1016.03 1016.43 1016.83 1016.95 1017.27 1017.23 1017.27 1017.27 1017.27 1017.27 1017.23 1017.03 1017.15 1017.27 1017.43 1017.55 1017.63 1017.71 1017.79 1017.83 1017.87 1017.95 1018.03 1018.19 1018.35 1018.47 1018.59 1018.71 1018.83 1019.11 1019.47 1019.59 1019.47 1019.67 1019.95 1020.07 1020.19 1020.59 1020.91 1020.87 1020.75 1020.51 1020.35 1020.15 1020.31 1020.79 1021.79 1022.23 1022.11 1023.19 1022.79 1022.75 1022.75 1022.59
1014.99 1014.95 1014.91 1014.87 1014.91 1014.95 1015.27 1015.59 1015.79 1016.11 1016.35 1016.67 1017.07 1017.15 1016.87 1016.83 1016.87 1017.03 1017.11 1017.27 1017.39 1017.43 1017.47 1017.59 1017.71 1017.79 1017.83 1017.87 1017.95 1018.03 1018.11 1018.15 1018.27 1018.39 1018.51 1018.71 1018.87 1018.99 1019.19 1019.27 1019.51 1019.63 1019.83 1020.03 1020.11 1020.51 1020.67 1020.79 1020.67 1020.51 1020.39 1020.23 1020.07 1020.15 1020.43 1021.51 1022.39 1022.83 1023.31 1023.11 1022.91 1022.91
1014.95 1015.03 1014.87 1014.87 1014.95 1014.83 1015.15 1015.43 1015.71 1015.99 1016.23 1016.51 1016.67 1016.87 1016.83 1016.83 1016.87 1017.03 1017.23 1017.39 1017.55 1017.63 1017.63 1017.67 1017.83 1017.91 1017.91 1017.91 1017.99 1018.07 1018.19 1018.31 1018.39 1018.47 1018.51 1018.63 1018.75 1018.87 1018.95 1019.23 1019.31 1019.51 1019.75 1019.91 1019.99 1020.15 1020.55 1020.55 1020.51 1020.75 1020.63 1020.43 1020.27 1020.27 1020.55 1020.79 1021.07 1021.51 1022.43 1023.31 1023.51 1023.03
1014.75 1014.87 1014.95 1014.99 1014.95 1014.83 1014.95 1015.23 1015.51 1015.87 1016.27 1016.35 1016.43 1016.67 1016.83 1016.91 1017.07 1017.15 1017.35 1017.47 1017.59 1017.75 1017.79 1017.91 1017.91 1017.95 1018.03 1018.03 1018.11 1018.07 1018.19 1018.39 1018.55 1018.63 1018.59 1018.71 1018.71 1018.75 1018.87 1019.07 1019.39 1019.63 1019.79 1019.91 1019.91 1019.99 1020.19 1020.39 1020.39 1020.51 1020.63 1020.79 1020.59 1020.63 1020.75 1020.95 1021.15 1021.35 1021.95 1023.07 1023.67 1023.51
1014.67 1014.79 1014.91 1014.87 1014.71 1014.83 1014.95 1015.19 1015.55 1015.83 1016.15 1016.55 1016.59 1016.87 1016.95 1017.23 1017.27 1017.31 1017.43 1017.59 1017.71 1017.87 1017.95 1017.99 1018.07 1018.07 1018.15 1018.15 1018.15 1018.11 1018.11 1018.23 1018.43 1018.51 1018.59 1018.71 1018.75 1018.79 1018.83 1018.95 1019.15 1019.39 1019.59 1019.79 1019.91 1019.99 1020.03 1020.19 1020.23 1020.31 1020.27 1020.43 1020.71 1020.95 1021.03 1021.27 1021.43 1021.55 1021.87 1021.87 1022.63 1023.31
1014.55 1014.67 1014.87 1014.75 1014.71 1014.91 1015.07 1015.19 1015.51 1015.83 1016.07 1016.43 1016.63 1016.83 1017.19 1017.39 1017.47 1017.47 1017.55 1017.75 1017.79 1017.87 1017.83 1017.87 1017.95 1018.07 1018.15 1018.23 1018.23 1018.11 1018.11 1018.23 1018.31 1018.35 1018.47 1018.59 1018.67 1018.75 1018.83 1018.95 1019.11 1019.23 1019.47 1019.63 1019.91 1020.07 1020.15 1020.27 1020.35 1020.35 1020.39 1020.39 1020.39 1020.35 1020.47 1020.87 1021.35 1021.51 1021.55 1022.19 1022.83 1023.23
1014.59 1014.79 1015.03 1014.91 1014.91 1015.11 1015.19 1015.31 1015.35 1015.59 1015.91 1016.15 1016.31 1016.63 1016.87 1017.15 1017.27 1017.47 1017.67 1017.87 1017.99 1017.99 1018.03 1018.03 1018.11 1018.19 1018.31 1018.27 1018.27 1018.31 1018.23 1018.31 1018.43 1018.43 1018.47 1018.43 1018.55 1018.63 1018.75 1018.87 1019.03 1019.23 1019.39 1019.47 1019.59 1019.79 1020.03 1020.27 1020.39 1020.47 1020.47 1020.51 1020.51 1020.47 1020.43 1020.55 1020.95 1021.15 1021.39 1021.83 1022.03 1022.83
1014.59 1014.99 1015.31 1015.23 1015.15 1015.19 1015.23 1015.31 1015.35 1015.55 1015.79 1015.99 1016.23 1016.43 1016.71 1017.03 1017.23 1017.43 1017.75 1018.03 1018.11 1018.15 1018.23 1018.23 1018.31 1018.35 1018.43 1018.35 1018.35 1018.39 1018.39 1018.43 1018.47 1018.47 1018.47 1018.47 1018.55 1018.59 1018.71 1018.83 1018.99 1019.11 1019.27 1019.39 1019.43 1019.55 1019.79 1019.99 1020.19 1020.35 1020.47 1020.71 1020.63 1020.79 1020.55 1020.59 1020.83 1021.19 1021.43 1021.63 1022.03 1022.79
1014.63 1015.07 1015.39 1015.43 1015.39 1015.35 1015.39 1015.39 1015.43 1015.59 1015.91 1016.11 1016.31 1016.47 1016.71 1016.95 1017.23 1017.47 1017.75 1017.91 1017.99 1018.07 1018.19 1018.31 1018.39 1018.43 1018.47 1018.43 1018.43 1018.43 1018.43 1018.51 1018.51 1018.51 1018.55 1018.67 1018.71 1018.75 1018.79 1018.87 1019.03 1019.19 1019.35 1019.39 1019.39 1019.55 1019.71 1019.95 1020.19 1020.35 1020.47 1020.79 1020.83 1020.87 1020.71 1020.71 1020.91 1021.15 1021.47 1021.87 1022.31 1022.43
1014.71 1015.19 1015.47 1015.59 1015.67 1015.63 1015.71 1015.67 1015.75 1015.83 1015.99 1016.11 1016.27 1016.43 1016.63 1016.79 1017.15 1017.47 1017.71 1017.83 1017.99 1018.11 1018.15 1018.31 1018.31 1018.43 1018.47 1018.47 1018.51 1018.51 1018.47 1018.47 1018.59 1018.67 1018.71 1018.83 1018.87 1018.91 1018.95 1019.03 1019.15 1019.27 1019.35 1019.43 1019.51 1019.55 1019.75 1019.99 1020.27 1020.39 1020.55 1020.59 1020.71 1020.75 1020.75 1020.83 1020.91 1021.11 1021.27 1021.43 1021.71 1022.11
1014.79 1015.19 1015.51 1015.75 1015.87 1015.79 1015.75 1015.67 1015.75 1015.91 1016.03 1016.03 1016.15 1016.35 1016.59 1016.75 1016.99 1017.19 1017.55 1017.71 1018.03 1018.15 1018.27 1018.31 1018.31 1018.35 1018.43 1018.43 1018.55 1018.59 1018.59 1018.63 1018.71 1018.83 1018.87 1018.91 1018.99 1019.11 1019.15 1019.23 1019.31 1019.27 1019.39 1019.47 1019.59 1019.71 1019.83 1019.95 1020.11 1020.27 1020.43 1020.59 1020.63 1020.75 1020.79 1020.79 1020.91 1020.99 1021.15 1021.31 1021.55 1021.87
1014.91 1015.23 1015.51 1015.71 1015.83 1015.71 1015.55 1015.55 1015.71 1015.87 1016.07 1016.15 1016.31 1016.51 1016.63 1016.83 1017.11 1017.35 1017.59 1017.87 1018.03 1018.23 1018.31 1018.35 1018.39 1018.35 1018.47 1018.51 1018.59 1018.63 1018.75 1018.79 1018.87 1018.99 1019.07 1019.11 1019.15 1019.23 1019.27 1019.35 1019.39 1019.43 1019.51 1019.55 1019.47 1019.67 1019.75 1019.87 1020.15 1020.31 1020.43 1020.51 1020.59 1020.79 1020.87 1020.87 1020.99 1021.15 1021.27 1021.43 1021.71 1021.99
Wind_Speed
7 8 8 7 6 7 11 14 12 13 13 13 13 12 11 13 12 12 11 11 9 5 4 4 6 5 10 6 7 9 9 8 9 11 12 11 10 8 7 6 5 3 3 2 1 4 5 6 6 7 5 9 5 5 5 5 6 5 4 4 4 5
7 8 8 7 5 6 7 9 7 7 6 9 12 11 8 5 8 6 12 7 4 4 4 3 3 7 4 5 6 9 9 7 8 10 10 10 9 8 7 6 5 4 3 2 0 1 3 5 6 6 4 8 3 6 6 5 5 5 4 4 3 7
8 8 9 7 6 6 6 5 5 5 5 8 8 7 5 5 5 6 7 6 4 4 3 3 3 5 4 8 6 9 9 7 7 8 9 10 8 7 6 5 4 2 2 0 0 1 2 2 3 5 6 4 2 6 6 6 4 4 4 3 4 10
9 9 8 6 5 5 5 4 4 5 5 5 5 4 5 6 6 6 6 5 4 3 3 2 7 10 8 4 4 8 8 7 7 7 8 6 7 5 5 6 6 6 4 3 2 3 4 3 3 2 5 2 2 6 6 6 6 5 5 5 5 11
8 8 8 7 7 6 5 5 4 5 5 4 4 4 5 6 5 6 6 5 4 3 3 2 3 4 4 4 3 3 2 1 1 2 5 4 4 4 4 3 3 4 4 4 4 3 4 5 4 3 6 2 4 6 6 6 6 5 5 5 6 12
7 7 7 7 7 7 6 5 5 5 5 4 5 5 5 5 5 5 5 5 4 5 4 3 4 4 4 4 4 3 2 1 2 3 3 4 3 3 3 3 3 3 3 3 4 4 4 4 5 4 5 5 5 6 6 5 4 1 3 5 6 12
7 6 6 6 6 5 5 5 5 5 6 5 5 5 5 5 4 4 5 4 5 4 4 4 4 4 4 4 3 2 1 1 3 4 3 4 3 2 3 3 3 3 3 3 3 3 5 4 2 5 5 5 3 5 6 5 5 3 1 3 6 12
7 7 6 6 6 6 5 6 5 5 5 6 6 5 5 4 4 5 4 4 4 5 5 5 5 5 4 4 4 2 1 2 2 2 2 4 3 2 3 3 3 3 4 3 2 2 4 1 2 6 6 5 3 3 6 6 5 5 4 3 4 9
7 6 5 6 6 5 5 5 5 6 6 7 5 5 5 5 4 4 4 4 5 5 4 4 5 4 4 4 4 3 2 2 2 2 2 3 3 2 2 3 4 3 3 3 2 2 1 3 5 6 5 5 5 3 5 6 6 5 4 3 4 7
8 7 7 6 5 6 5 6 5 5 5 6 5 6 5 5 4 5 4 4 4 4 5 5 4 3 4 3 4 3 3 2 2 2 3 2 1 1 2 3 3 2 4 3 3 0 2 4 4 4 4 5 5 4 3 5 6 5 5 4 4 6
8 7 7 7 6 6 5 6 5 5 5 5 6 6 5 4 4 4 4 4 4 4 4 4 5 5 3 4 3 4 3 3 3 2 3 3 2 2 2 1 2 3 2 2 2 1 3 4 3 3 2 5 5 4 4 4 6 5 5 4 4 4
8 8 8 8 7 7 6 6 5 6 5 5 5 5 5 4 4 4 5 5 4 4 4 4 5 4 4 4 4 4 3 4 3 3 3 3 3 2 2 1 2 3 2 2 2 2 1 4 4 3 4 6 6 5 4 4 5 5 5 4 5 5
8 8 8 9 8 7 6 6 6 6 6 6 5 5 5 5 5 5 5 5 5 4 4 5 4 5 5 5 5 4 3 3 3 3 3 3 4 3 2 2 2 2 3 3 3 2 4 4 4 3 5 6 6 6 5 5 5 5 5 5 5 5
8 9 9 8 7 7 7 6 5 5 5 6 5 5 5 5 4 4 4 5 4 4 4 4 4 4 5 5 5 5 4 4 3 3 3 4 4 4 3 3 2 4 3 4 4 2 5 5 3 4 5 5 6 5 5 5 4 5 5 5 5 5
8 8 9 8 8 7 6 7 6 5 5 6 5 5 5 5 5 5 5 5 4 4 4 4 4 5 5 5 5 5 4 3 4 3 4 4 5 4 4 4 3 5 3 4 3 2 3 5 4 5 5 5 5 5 5 5 5 4 4 4 5 4
5 6 6 7 7 7 7 6 6 6 6 5 5 5 5 5 5 4 5 5 4 4 4 3 3 4 5 5 5 5 4 4 5 4 3 3 5 5 4 3 2 5 6 3 4 4 3 5 5 6 4 5 4 3 3 3 3 4 4 5 5 5
6 6 6 6 6 6 7 6 7 6 6 5 5 5 5 5 5 5 4 4 5 5 3 3 3 3 4 4 4 4 4 5 5 5 4 4 4 4 4 4 2 2 4 5 5 4 3 4 6 5 5 5 4 4 4 3 3 2 3 4 4 4
6 7 5 5 2 5 6 6 5 5 5 5 5 5 5 5 5 5 4 5 4 4 4 4 4 4 5 4 4 5 4 4 5 5 4 4 3 2 3 3 4 3 4 6 5 5 5 4 5 5 5 6 5 4 4 4 2 2 3 3 4 4
7 8 8 9 4 9 2 5 4 5 5 4 4 5 5 5 5 4 5 3 3 3 4 3 3 4 5 5 4 4 4 3 4 5 5 4 3 4 3 2 4 4 4 3 5 4 5 5 6 5 6 6 6 5 3 3 2 2 2 2 3 4
5 8 7 6 8 3 6 5 6 4 5 5 5 5 4 5 4 5 4 3 3 4 3 4 3 3 4 5 4 4 4 3 4 5 5 5 4 4 4 4 3 6 6 5 5 4 5 7 7 7 6 6 6 5 4 3 4 4 4 4 4 4
5 8 9 7 8 9 6 5 3 5 6 5 5 4 4 3 4 4 4 4 4 4 4 3 3 4 5 5 4 4 4 3 3 4 4 4 4 3 3 4 4 3 6 7 5 3 3 5 9 6 5 5 5 5 5 4 5 5 5 4 4 4
6 7 8 9 8 9 7 7 6 6 3 5 4 5 4 3 4 3 3 4 4 4 4 4 4 3 4 5 5 4 4 5 4 4 4 3 3 3 4 4 4 4 1 5 4 5 6 3 3 5 6 2 3 4 4 5 5 5 5 4 3 4
6 8 7 8 6 6 4 5 5 5 5 2 1 3 4 4 4 5 4 4 4 4 5 4 4 4 4 4 5 5 5 5 4 4 5 4 3 3 4 4 4 5 3 3 4 3 0 2 5 2 3 5 1 2 2 3 3 5 5 4 3 3
8 7 8 8 7 6 4 4 3 5 4 4 3 2 3 4 4 4 3 3 3 4 3 3 3 4 3 4 5 5 4 4 5 4 5 5 4 4 5 4 3 4 5 5 3 3 2 5 3 9 2 1 2 2 3 0 2 2 3 4 4 4
9 9 8 8 8 5 4 4 4 5 5 6 4 4 5 3 4 4 4 3 4 3 3 3 3 3 3 4 4 4 4 3 4 4 4 4 4 5 6 6 5 6 5 6 4 2 1 2 2 3 6 5 2 1 3 2 3 3 3 3 4 2
7 8 9 8 6 4 6 7 6 7 7 6 6 6 6 7 4 5 6 3 2 3 3 3 3 3 3 3 3 3 3 4 4 5 5 4 4 4 3 3 5 5 4 2 5 4 2 1 0 2 0 1 5 5 6 3 3 2 3 3 2 2
7 7 7 6 6 7 7 7 9 8 7 8 8 3 3 4 6 3 4 4 4 3 3 4 3 3 3 3 3 3 3 4 4 4 4 5 5 4 6 5 4 5 4 5 4 4 6 4 1 2 1 1 1 0 7 8 2 5 4 2 2 1
5 4 5 4 7 9 9 8 9 8 8 8 7 6 6 5 2 3 5 4 5 3 3 3 3 3 3 3 3 3 3 3 3 3 3 5 5 4 4 4 5 5 4 5 5 7 5 5 6 3 0 2 2 4 3 5 4 6 6 6 2 3
7 6 5 7 8 9 9 9 10 8 8 6 7 6 5 4 3 3 5 4 5 4 2 1 2 4 3 3 3 4 3 3 3 3 3 2 2 4 5 5 5 5 5 4 4 4 6 6 5 5 4 2 4 3 4 5 4 3 5 6 2 2
7 7 6 7 8 8 9 9 9 8 9 6 6 6 6 5 4 4 6 5 4 5 3 3 2 3 4 4 4 3 2 4 4 4 3 3 3 3 3 4 5 5 5 5 3 5 6 5 4 4 4 6 5 3 3 3 3 4 4 2 9 7
8 6 5 7 8 9 7 8 9 8 9 8 8 8 7 6 4 4 6 4 4 4 3 4 4 3 3 4 3 3 5 4 4 3 4 4 5 4 4 4 4 4 5 6 5 4 3 3 3 4 3 5 8 9 8 6 7 4 4 5 6 5
7 6 5 5 6 8 7 7 8 10 10 10 10 9 10 8 7 6 6 5 3 5 4 4 4 4 3 3 4 4 4 5 4 4 4 4 4 5 5 4 5 5 5 4 5 5 5 5 4 3 3 2 3 2 3 5 6 6 7 8 9 8
9 6 4 4 6 7 6 7 8 9 9 9 9 9 8 7 5 7 6 5 4 6 3 5 5 5 2 4 4 5 5 5 4 4 4 4 3 4 4 4 4 4 5 5 6 6 6 5 6 6 6 3 0 2 4 2 5 5 4 6 7 8
9 6 3 3 4 5 4 6 7 8 8 7 8 8 7 7 6 6 6 6 6 6 5 5 4 4 3 3 3 4 5 4 4 4 4 4 4 3 4 5 4 4 4 3 3 4 4 4 3 2 3 6 5 4 4 4 4 6 7 7 6 8
8 5 2 2 2 4 3 4 4 4 6 6 7 7 7 7 7 7 6 6 5 5 6 5 6 4 3 4 3 3 4 5 4 4 4 4 4 4 4 4 4 4 3 3 3 4 4 5 4 4 3 4 5 3 5 5 5 6 6 7 8 7
7 6 3 1 1 3 3 4 5 5 6 7 7 7 6 6 6 7 7 7 5 4 5 5 4 5 4 4 4 4 4 4 4 4 4 5 4 4 4 5 4 4 4 3 5 5 4 5 5 4 4 4 4 4 4 5 5 6 6 5 6 6
8 6 4 3 3 4 4 5 5 5 5 6 6 6 7 6 5 5 6 5 6 5 4 4 4 4 4 4 4 4 4 4 5 4 4 4 5 4 4 4 5 4 4 3 5 5 5 6 5 6 5 5 5 5 5 3 4 5 5 4 5 4
Wind_Direction
118 122 121 117 121 125 136 128 122 126 126 123 123 121 123 125 126 128 122 105 96 85 72 84 109 116 123 120 125 129 120 127 131 126 124 123 122 120 121 119 114 104 98 72 319 304 316 317 320 317 347 53 59 81 106 108 116 123 130 131 124 132
122 121 118 117 120 126 129 123 121 129 124 121 124 121 118 117 115 98 103 95 86 84 82 83 92 120 115 131 133 129 123 135 137 124 122 116 113 110 109 111 122 128 140 146 237 289 299 307 305 310 347 67 62 99 104 111 117 124 126 130 129 130
122 119 114 111 116 116 111 108 111 117 117 117 115 110 110 101 79 90 93 89 89 88 91 81 98 122 125 131 129 127 130 144 134 121 116 111 109 105 102 105 95 103 98 73 38 273 287 297 302 312 47 69 69 111 113 108 110 125 140 149 140 140
130 130 124 124 118 117 115 116 118 112 109 104 106 102 101 91 81 84 90 96 103 105 102 124 142 141 128 105 125 130 138 145 131 118 104 91 88 86 72 50 40 43 38 19 354 332 312 305 304 303 72 108 134 116 119 128 138 151 158 153 148 142
137 135 135 133 131 130 128 124 114 105 102 104 98 91 89 86 92 97 102 107 111 109 98 65 54 82 93 104 86 81 87 67 85 85 84 75 68 60 63 61 41 40 39 24 12 344 336 319 314 21 71 141 125 119 126 141 153 156 163 146 145 137
141 143 139 137 137 136 132 125 116 111 105 95 94 94 90 89 98 106 111 117 114 110 104 86 72 85 88 92 92 83 105 111 87 87 79 76 69 86 88 82 66 48 32 28 8 343 324 313 320 61 117 125 135 126 124 114 106 110 156 141 141 138
146 141 134 132 127 124 127 120 116 122 116 108 102 100 95 100 113 118 116 127 124 123 121 122 114 102 102 102 107 109 142 121 118 99 93 102 72 52 79 78 65 51 43 37 3 333 309 302 296 130 120 138 148 125 118 122 123 118 136 130 136 137
144 140 140 139 130 128 125 125 132 120 108 123 115 109 116 127 130 129 130 137 132 136 144 145 136 124 127 110 120 121 138 97 88 96 95 92 94 52 44 66 75 47 49 43 19 331 292 297 135 113 135 143 107 96 126 129 124 112 104 97 110 124
141 140 139 139 133 128 128 124 120 120 124 135 119 128 137 144 145 138 134 139 145 144 150 142 139 136 125 132 134 138 131 99 84 90 86 63 82 92 53 61 64 56 53 50 33 338 344 75 109 125 136 136 119 138 122 112 107 102 84 81 111 122
148 145 146 138 133 134 135 124 126 128 136 137 141 145 150 160 158 143 140 144 148 157 156 147 135 127 134 153 143 129 117 119 118 121 95 85 65 76 66 58 71 84 65 58 65 5 124 110 109 122 135 128 121 126 91 107 110 107 108 106 105 114
146 147 147 140 141 135 134 132 135 136 137 147 149 153 158 156 152 148 147 150 157 160 138 130 138 149 157 149 128 125 128 135 132 128 113 124 106 100 78 101 99 75 72 69 95 185 147 125 99 78 75 93 98 86 81 98 108 109 104 102 99 102
149 150 148 144 143 143 145 144 139 139 150 153 152 158 157 156 156 159 160 157 162 159 143 147 149 156 155 141 136 132 130 125 143 138 128 121 115 100 95 103 82 94 111 118 120 99 47 69 78 93 90 88 91 85 77 99 114 116 117 111 102 99
150 153 152 151 152 148 144 144 146 152 158 162 161 159 159 164 164 168 165 164 168 163 157 158 168 169 155 144 142 129 128 143 153 139 114 122 114 108 97 78 60 109 95 108 104 81 82 80 104 102 91 91 94 88 85 97 113 120 124 118 111 106
155 156 153 151 147 148 149 147 149 157 164 163 164 163 167 166 165 165 169 172 167 167 168 172 169 166 146 143 143 147 152 160 150 135 124 129 122 127 121 112 131 99 111 121 120 120 98 86 57 65 73 89 91 103 114 110 121 129 129 119 111 101
158 152 150 149 148 148 149 150 155 162 168 167 169 168 168 165 167 174 170 171 171 181 177 183 175 147 146 142 144 144 148 148 134 133 124 143 134 139 139 141 148 111 103 94 95 75 82 90 89 73 67 85 101 116 117 127 131 123 103 96 96 102
149 141 143 147 145 145 151 156 161 166 172 172 167 169 169 172 175 170 173 170 174 184 180 189 162 147 142 143 141 141 140 127 131 124 125 130 128 140 147 131 135 130 116 103 105 79 62 91 83 85 80 81 86 83 83 70 79 89 105 123 133 135
140 135 131 145 144 145 154 163 167 172 177 171 168 174 175 163 173 175 176 163 174 186 177 174 159 146 133 130 126 121 129 128 127 124 123 126 125 144 133 132 119 123 130 133 122 109 77 81 98 97 96 91 83 86 71 53 47 91 119 122 127 118
116 98 72 11 357 159 164 164 168 166 173 174 179 177 166 165 172 178 166 171 178 166 154 157 152 141 133 136 130 128 124 122 127 127 122 113 122 113 121 127 123 104 123 126 125 120 112 99 91 94 90 88 80 67 55 56 63 83 72 98 106 98
114 125 138 134 70 325 186 161 152 162 172 180 177 180 165 172 169 155 176 175 158 148 155 148 136 132 126 126 116 120 120 132 127 124 121 118 114 106 109 102 118 104 87 79 115 116 111 99 85 77 75 66 68 57 53 68 80 75 57 53 100 102
101 135 131 132 127 137 283 166 152 160 168 183 188 174 180 178 157 169 180 164 163 159 150 140 136 127 123 121 120 126 131 134 126 122 123 124 125 135 138 116 111 117 104 83 66 91 97 100 82 72 68 62 56 54 52 40 50 43 37 41 62 85
128 140 149 152 155 155 212 171 156 171 180 187 187 181 174 169 173 176 170 166 164 154 143 133 136 139 142 134 126 130 130 128 121 121 130 144 151 151 133 131 120 102 120 108 88 90 92 109 107 75 59 57 41 31 45 42 44 41 41 40 53 75
141 150 162 170 167 164 194 186 168 180 180 177 172 163 164 161 167 159 156 158 151 143 142 149 154 152 144 134 140 147 143 145 129 130 138 134 147 138 117 130 129 92 43 114 117 148 162 107 42 137 138 91 39 32 46 40 42 36 34 32 56 74
158 158 173 175 166 180 196 178 166 170 163 146 167 169 151 155 149 144 154 153 143 144 148 156 157 155 143 143 153 156 158 149 144 140 130 135 138 137 143 141 145 133 116 69 108 155 74 359 143 116 101 98 100 71 359 25 21 38 34 37 32 52
172 167 175 182 179 193 183 165 151 137 131 135 157 137 113 120 116 115 147 160 153 152 154 152 161 155 147 154 157 159 155 141 149 149 149 150 153 144 134 148 154 136 135 115 112 162 168 204 172 144 106 116 131 105 91 5 77 11 11 45 35 62
171 176 182 186 191 175 129 101 90 80 87 77 66 97 107 114 139 149 135 157 186 149 147 158 167 160 162 162 158 155 152 151 145 157 150 147 160 159 164 166 154 145 157 147 150 141 11 94 172 302 150 119 73 64 205 171 122 39 18 32 27 55
172 176 184 194 196 160 152 140 137 134 137 133 136 140 152 160 162 152 171 180 127 137 145 153 170 169 166 158 162 164 154 155 147 155 164 159 151 129 119 181 159 153 149 154 140 128 123 31 133 57 25 187 169 170 150 168 97 144 25 37 31 29
180 185 191 191 184 162 147 155 157 155 155 153 151 180 162 161 161 164 125 150 149 151 155 157 177 177 177 175 158 158 163 168 162 158 162 145 153 162 164 169 138 136 155 137 129 131 155 178 55 11 7 341 317 273 134 136 155 116 100 356 14 12
198 203 197 183 182 165 154 160 153 151 154 151 157 164 166 171 155 125 123 139 141 158 172 173 165 176 186 176 169 181 174 170 165 167 168 171 168 165 154 142 151 149 139 150 156 153 169 176 158 212 3 31 42 84 97 80 108 145 126 129 80 359
190 188 192 184 174 159 155 157 151 148 148 157 149 147 148 139 141 131 105 102 119 144 164 166 190 181 194 180 172 190 186 174 162 169 195 158 142 164 165 153 143 139 155 150 161 162 150 179 165 166 129 74 94 93 73 81 105 108 136 126 93 151
183 182 189 183 161 154 154 150 145 152 146 144 128 123 130 140 142 130 112 111 111 111 126 125 161 154 152 145 142 145 149 175 162 169 169 157 149 156 160 162 163 162 161 153 152 158 170 177 174 164 169 150 130 107 75 74 76 100 69 55 151 165
175 179 198 174 156 156 154 149 148 148 142 142 138 136 133 136 130 109 116 123 119 123 109 102 90 67 94 104 102 101 98 100 127 138 136 135 144 146 151 154 147 142 153 152 149 144 137 152 154 159 159 159 158 166 167 162 165 166 141 127 106 130
167 178 201 179 155 150 150 153 148 149 149 150 148 148 149 154 154 141 137 140 138 103 82 79 70 75 64 86 86 74 81 86 104 127 125 124 130 131 134 131 132 134 133 135 142 135 144 151 147 150 151 151 150 124 132 146 157 146 139 147 145 148
169 168 200 181 166 154 151 155 153 151 151 151 150 149 148 147 151 140 143 137 136 122 107 79 72 81 64 102 109 94 84 92 100 123 131 125 123 112 110 115 128 129 133 146 158 149 152 165 162 159 172 104 52 255 169 147 126 128 109 124 137 136
152 153 182 192 173 147 149 154 154 151 149 150 149 147 147 144 151 142 147 149 152 149 138 133 120 118 145 110 95 110 110 99 101 121 123 114 108 110 115 121 122 120 132 146 120 132 141 143 147 137 132 146 168 193 155 154 140 123 137 131 142 144
136 130 134 188 156 137 116 115 130 131 143 148 146 146 148 148 148 142 153 149 154 147 139 150 133 151 130 102 110 105 101 92 88 105 113 110 106 100 100 94 99 108 97 101 99 110 122 133 136 139 148 156 154 142 150 157 146 152 153 158 149 154
131 124 120 126 156 136 121 106 130 138 158 150 150 145 143 146 149 143 153 148 152 146 144 140 139 130 132 118 113 94 79 80 89 98 109 119 114 103 103 101 99 102 95 101 113 108 126 128 141 148 144 146 133 151 148 157 161 167 166 149 141 136
127 118 122 149 175 168 148 129 149 156 161 144 144 150 150 147 128 123 132 138 137 141 136 131 137 129 124 116 116 108 89 83 92 100 98 105 114 117 109 106 107 103 106 117 100 112 117 111 125 127 132 148 146 146 162 144 141 148 139 125 119 127